Temp
-7 -6 -6 -6 -6 -6 -6 -5 -5 -6 -6 -6 -6 -6 -6 -6 -6 -7 -7 -7 -8 -7 -7 -7 -7 -7 -8 -8 -8 -8 -8 -8 -8 -8 -9 -9 -10 -9 -9 -10 -10 -10 -10
-7 -6 -6 -6 -6 -6 -6 -6 -5 -6 -6 -6 -6 -6 -6 -6 -7 -7 -7 -7 -7 -7 -7 -8 -7 -7 -8 -8 -8 -8 -8 -8 -9 -9 -9 -9 -9 -9 -10 -10 -10 -10 -11
-7 -6 -6 -7 -6 -6 -6 -6 -6 -5 -6 -6 -6 -6 -6 -7 -7 -7 -7 -7 -7 -8 -7 -7 -7 -7 -7 -8 -8 -8 -8 -9 -9 -9 -9 -10 -10 -10 -9 -10 -10 -10 -11
-7 -6 -7 -7 -7 -7 -6 -6 -6 -6 -6 -6 -7 -6 -7 -6 -7 -7 -7 -7 -7 -8 -7 -7 -7 -7 -7 -8 -8 -8 -8 -9 -9 -8 -9 -9 -9 -9 -9 -10 -10 -10 -10
-7 -7 -7 -6 -7 -6 -6 -6 -6 -6 -6 -6 -6 -6 -6 -7 -6 -7 -7 -7 -7 -7 -8 -8 -8 -8 -8 -8 -8 -8 -8 -9 -8 -9 -9 -9 -9 -9 -10 -10 -10 -10 -10
-7 -6 -7 -7 -7 -6 -7 -6 -6 -6 -6 -6 -6 -6 -7 -7 -7 -7 -7 -7 -7 -7 -7 -8 -8 -8 -8 -8 -8 -8 -9 -9 -9 -9 -9 -9 -9 -9 -9 -11 -11 -10 -9
-7 -7 -7 -7 -7 -6 -6 -7 -7 -6 -6 -6 -6 -7 -6 -7 -7 -7 -7 -7 -7 -7 -8 -8 -8 -8 -8 -8 -9 -9 -9 -9 -9 -9 -9 -9 -10 -9 -10 -10 -10 -10 -10
-7 -7 -7 -7 -7 -6 -6 -6 -6 -6 -6 -6 -6 -7 -6 -7 -7 -7 -7 -7 -7 -8 -8 -8 -8 -8 -9 -9 -9 -10 -10 -9 -9 -9 -10 -9 -9 -9 -9 -9 -9 -9 -10
-7 -7 -7 -7 -7 -6 -6 -6 -6 -6 -7 -6 -6 -6 -6 -7 -6 -7 -7 -8 -8 -8 -8 -8 -8 -9 -9 -9 -9 -9 -9 -9 -9 -9 -9 -9 -9 -10 -9 -10 -10 -10 -10
-7 -7 -8 -7 -7 -6 -6 -6 -6 -6 -7 -7 -7 -7 -6 -7 -7 -7 -7 -7 -8 -8 -9 -9 -9 -9 -9 -9 -9 -9 -9 -8 -8 -9 -9 -9 -9 -9 -10 -10 -11 -11 -10
-7 -7 -7 -7 -7 -7 -6 -6 -6 -6 -6 -7 -7 -7 -6 -7 -7 -7 -7 -8 -8 -9 -9 -9 -9 -9 -9 -9 -9 -9 -9 -9 -9 -9 -9 -9 -9 -10 -10 -10 -10 -10 -10
-7 -7 -7 -7 -7 -7 -7 -7 -7 -6 -7 -7 -7 -6 -7 -6 -7 -7 -8 -8 -9 -9 -9 -9 -9 -9 -9 -9 -9 -9 -9 -9 -9 -9 -9 -9 -9 -9 -10 -10 -10 -9 -10
-7 -6 -7 -7 -7 -7 -7 -7 -7 -7 -7 -7 -6 -6 -6 -7 -7 -7 -7 -8 -9 -9 -9 -10 -9 -9 -9 -9 -9 -8 -8 -9 -9 -9 -8 -9 -9 -9 -10 -10 -9 -9 -9
-7 -6 -6 -7 -7 -7 -7 -7 -7 -8 -7 -7 -6 -6 -6 -7 -7 -7 -7 -8 -9 -9 -9 -10 -9 -9 -9 -9 -8 -8 -8 -8 -8 -8 -8 -8 -8 -9 -9 -10 -9 -9 -9
-6 -6 -6 -6 -6 -6 -7 -7 -8 -7 -7 -7 -6 -6 -6 -7 -7 -7 -7 -8 -8 -9 -9 -9 -9 -9 -9 -8 -8 -8 -8 -8 -8 -8 -8 -8 -8 -8 -8 -9 -9 -8 -8
-6 -6 -5 -5 -6 -6 -7 -7 -7 -7 -7 -7 -7 -7 -7 -7 -7 -7 -7 -8 -8 -9 -9 -9 -9 -9 -8 -9 -8 -8 -8 -8 -8 -8 -8 -8 -8 -8 -8 -8 -8 -8 -8
-6 -6 -5 -6 -5 -7 -7 -7 -7 -7 -7 -7 -7 -7 -7 -7 -7 -7 -7 -8 -8 -8 -9 -8 -9 -9 -8 -8 -8 -8 -8 -8 -7 -8 -8 -8 -8 -8 -8 -8 -8 -8 -8
-6 -7 -7 -6 -6 -7 -7 -7 -7 -7 -7 -7 -6 -7 -7 -7 -8 -7 -7 -8 -8 -8 -8 -8 -8 -8 -8 -8 -8 -8 -8 -7 -7 -8 -8 -8 -8 -8 -7 -7 -8 -7 -7
-6 -6 -7 -6 -7 -7 -7 -7 -7 -8 -8 -8 -7 -7 -7 -8 -8 -7 -8 -8 -8 -8 -8 -8 -8 -8 -8 -8 -8 -8 -8 -7 -8 -8 -8 -8 -7 -7 -7 -7 -7 -7 -7
-7 -7 -7 -7 -7 -7 -7 -7 -6 -7 -8 -8 -7 -7 -7 -8 -8 -8 -8 -8 -8 -8 -8 -8 -8 -9 -8 -8 -8 -8 -8 -8 -8 -8 -7 -7 -7 -7 -7 -7 -7 -7 -7
-7 -7 -7 -7 -7 -6 -6 -7 -6 -8 -8 -8 -7 -8 -8 -8 -8 -8 -8 -8 -7 -8 -8 -8 -8 -8 -8 -8 -8 -8 -8 -8 -7 -7 -7 -7 -7 -7 -7 -7 -7 -7 -7
-6 -7 -7 -8 -7 -7 -7 -8 -8 -8 -7 -7 -8 -8 -8 -8 -8 -8 -8 -8 -8 -8 -7 -7 -7 -7 -7 -8 -7 -7 -7 -7 -7 -7 -7 -7 -7 -7 -7 -7 -7 -7 -7
-6 -7 -8 -8 -8 -8 -8 -8 -8 -8 -8 -7 -7 -8 -8 -8 -8 -7 -7 -7 -8 -8 -7 -7 -7 -8 -7 -8 -7 -7 -7 -7 -7 -7 -6 -7 -7 -7 -7 -7 -7 -7 -7
-7 -7 -7 -8 -8 -8 -8 -8 -8 -7 -7 -8 -8 -8 -8 -8 -8 -7 -7 -7 -8 -8 -7 -7 -7 -7 -7 -7 -7 -7 -7 -7 -7 -7 -7 -6 -6 -6 -7 -7 -7 -7 -7
-6 -7 -7 -7 -7 -8 -9 -8 -8 -8 -8 -8 -8 -7 -8 -8 -7 -7 -7 -8 -7 -8 -7 -7 -7 -7 -7 -7 -7 -7 -7 -6 -7 -7 -7 -7 -7 -6 -6 -7 -7 -7 -7
-7 -7 -8 -7 -7 -8 -8 -8 -8 -8 -8 -8 -7 -7 -7 -7 -7 -7 -7 -7 -8 -7 -7 -7 -7 -8 -7 -7 -7 -7 -7 -6 -7 -6 -6 -6 -6 -6 -6 -6 -7 -6 -7
Height
5899 5901 5903 5904 5906 5906 5906 5908 5907 5908 5907 5907 5906 5908 5910 5911 5911 5910 5911 5910 5909 5909 5910 5911 5911 5912 5912 5912 5912 5912 5911 5910 5910 5909 5907 5905 5904 5903 5902 5902 5902 5903 5904
5898 5899 5902 5903 5904 5906 5907 5908 5908 5908 5907 5907 5906 5908 5910 5911 5910 5910 5909 5909 5909 5909 5910 5911 5912 5913 5913 5913 5913 5913 5912 5911 5909 5907 5909 5904 5903 5903 5902 5901 5901 5901 5901
5895 5897 5899 5901 5903 5904 5906 5907 5907 5907 5907 5907 5906 5907 5909 5910 5909 5909 5908 5908 5908 5909 5910 5913 5913 5913 5913 5913 5913 5913 5912 5912 5908 5906 5908 5904 5901 5900 5898 5898 5899 5899 5899
5892 5895 5898 5899 5901 5902 5904 5906 5906 5907 5907 5907 5908 5908 5908 5908 5908 5908 5907 5904 5907 5907 5910 5913 5914 5914 5913 5913 5913 5913 5911 5910 5906 5907 5906 5902 5901 5899 5898 5896 5896 5897 5897
5889 5893 5895 5897 5899 5901 5902 5903 5906 5906 5906 5907 5908 5909 5908 5908 5908 5907 5907 5907 5907 5909 5911 5914 5915 5915 5915 5915 5914 5912 5912 5909 5906 5906 5905 5902 5901 5899 5892 5892 5893 5895 5895
5889 5891 5893 5896 5898 5899 5901 5904 5905 5906 5906 5907 5909 5910 5908 5907 5907 5907 5907 5907 5908 5910 5912 5915 5916 5915 5915 5914 5914 5913 5914 5910 5908 5907 5905 5902 5900 5895 5886 5887 5892 5894 5893
5887 5888 5890 5894 5896 5897 5899 5902 5903 5906 5906 5907 5908 5909 5907 5907 5907 5908 5907 5906 5910 5912 5914 5915 5916 5916 5916 5916 5914 5913 5912 5910 5910 5907 5904 5901 5899 5895 5892 5890 5890 5892 5891
5886 5887 5888 5890 5892 5894 5896 5899 5899 5904 5905 5906 5907 5906 5906 5907 5907 5908 5908 5911 5912 5913 5914 5916 5916 5916 5916 5915 5913 5913 5911 5909 5910 5909 5905 5902 5898 5888 5887 5889 5890 5891 5891
5885 5886 5886 5886 5888 5889 5891 5897 5898 5902 5903 5904 5905 5906 5907 5907 5908 5908 5909 5911 5911 5915 5915 5916 5917 5916 5916 5915 5913 5912 5910 5909 5909 5909 5907 5903 5899 5891 5881 5885 5890 5887 5890
5884 5884 5884 5885 5886 5885 5888 5895 5896 5900 5901 5903 5905 5905 5905 5906 5905 5908 5910 5911 5914 5915 5916 5917 5917 5917 5916 5914 5913 5912 5910 5909 5910 5910 5907 5904 5901 5895 5887 5889 5890 5889 5889
5883 5884 5885 5884 5884 5883 5889 5890 5894 5898 5898 5900 5903 5903 5904 5903 5905 5909 5912 5912 5916 5915 5916 5917 5917 5916 5916 5914 5913 5912 5911 5911 5911 5910 5908 5904 5900 5898 5894 5894 5893 5891 5889
5881 5882 5884 5885 5884 5885 5886 5891 5894 5896 5898 5899 5901 5902 5902 5903 5906 5911 5912 5914 5915 5915 5915 5916 5917 5917 5917 5915 5915 5914 5914 5913 5913 5910 5909 5906 5901 5898 5895 5894 5894 5893 5891
5880 5881 5883 5884 5886 5887 5890 5892 5895 5896 5896 5898 5899 5901 5903 5903 5908 5912 5913 5915 5916 5916 5916 5917 5917 5917 5918 5918 5917 5916 5916 5915 5914 5913 5912 5909 5905 5902 5899 5897 5896 5895 5893
5879 5880 5882 5883 5885 5887 5890 5891 5894 5895 5897 5899 5901 5902 5903 5905 5908 5912 5914 5916 5916 5917 5918 5918 5918 5919 5919 5918 5918 5918 5917 5916 5914 5914 5914 5912 5908 5906 5903 5902 5900 5899 5897
5878 5878 5879 5881 5883 5886 5889 5891 5893 5894 5898 5901 5903 5904 5905 5907 5910 5913 5915 5916 5917 5918 5918 5919 5920 5920 5919 5919 5919 5919 5918 5917 5916 5917 5916 5914 5912 5910 5907 5906 5905 5904 5902
5877 5876 5877 5879 5880 5884 5887 5890 5891 5893 5897 5901 5903 5905 5907 5909 5911 5913 5916 5916 5918 5918 5919 5920 5921 5921 5921 5921 5921 5921 5920 5920 5919 5919 5917 5917 5916 5914 5911 5910 5910 5909 5907
5877 5875 5874 5876 5879 5881 5884 5887 5889 5893 5897 5900 5904 5906 5908 5910 5912 5914 5916 5918 5918 5918 5920 5921 5921 5922 5922 5923 5923 5921 5921 5922 5920 5920 5920 5920 5919 5917 5915 5914 5914 5913 5913
5877 5877 5876 5875 5877 5880 5883 5887 5890 5893 5896 5900 5903 5906 5908 5911 5912 5914 5916 5917 5918 5918 5919 5921 5922 5923 5923 5923 5922 5923 5923 5923 5922 5922 5924 5924 5923 5921 5920 5918 5919 5919 5918
5878 5877 5878 5876 5878 5881 5884 5887 5889 5892 5896 5900 5903 5905 5908 5911 5913 5914 5917 5917 5918 5918 5920 5922 5923 5923 5924 5925 5924 5924 5925 5925 5926 5926 5927 5927 5927 5925 5924 5924 5923 5923 5922
5878 5878 5879 5879 5879 5881 5883 5887 5889 5892 5896 5899 5902 5905 5908 5911 5913 5914 5917 5918 5919 5919 5920 5922 5924 5925 5925 5926 5926 5926 5927 5927 5927 5928 5929 5929 5929 5928 5927 5927 5926 5926 5926
5878 5878 5879 5880 5881 5882 5884 5887 5888 5891 5896 5899 5902 5905 5908 5911 5914 5915 5918 5919 5920 5920 5920 5923 5925 5926 5927 5928 5928 5927 5928 5929 5928 5930 5931 5931 5930 5930 5929 5929 5929 5929 5928
5879 5879 5880 5882 5884 5884 5885 5888 5891 5894 5897 5900 5902 5904 5908 5911 5914 5916 5918 5918 5920 5921 5921 5924 5926 5926 5927 5926 5927 5928 5929 5931 5931 5932 5931 5931 5931 5931 5931 5931 5930 5929 5929
5878 5879 5880 5881 5883 5886 5888 5889 5891 5893 5896 5898 5901 5904 5908 5910 5913 5915 5917 5918 5920 5920 5922 5924 5926 5926 5926 5926 5928 5929 5930 5932 5932 5933 5933 5932 5931 5931 5932 5933 5932 5931 5930
5878 5879 5879 5880 5883 5884 5886 5888 5891 5893 5895 5898 5901 5905 5909 5910 5912 5915 5917 5918 5920 5921 5921 5923 5925 5926 5926 5927 5928 5929 5931 5932 5933 5934 5934 5933 5932 5932 5933 5933 5933 5932 5932
5878 5878 5879 5879 5881 5883 5884 5886 5889 5893 5896 5898 5901 5904 5907 5910 5911 5915 5917 5919 5920 5921 5923 5923 5924 5924 5927 5927 5928 5928 5930 5932 5932 5933 5933 5933 5932 5931 5932 5933 5933 5933 5933
5877 5878 5879 5880 5881 5883 5884 5885 5888 5891 5895 5897 5900 5902 5905 5908 5910 5914 5918 5919 5919 5920 5922 5922 5923 5924 5926 5926 5928 5928 5930 5931 5931 5931 5932 5932 5932 5932 5932 5933 5933 5933 5933
Wind_Speed
14 11 7 5 4 8 7 5 2 1 1 2 3 3 3 5 5 4 4 3 2 1 9 8 6 8 6 5 8 9 10 10 8 7 5 2 2 1 4 6 7 8 7
14 13 11 10 7 7 8 6 4 4 2 4 5 3 4 5 4 4 2 3 2 2 8 5 6 7 7 7 8 9 11 11 8 8 6 5 5 3 6 9 9 9 8
17 15 13 12 10 10 9 7 6 5 5 7 4 2 2 6 6 7 5 2 3 5 4 6 7 7 7 8 9 10 11 9 7 7 7 7 5 9 11 14 10 12 12
18 14 15 16 14 14 12 10 8 5 7 8 2 3 5 6 7 10 9 10 7 4 4 6 7 8 8 8 7 8 10 7 8 8 8 10 11 10 3 4 6 8 10
15 16 14 14 16 16 15 12 7 6 5 5 4 4 4 7 7 7 13 10 6 8 7 7 9 9 8 7 7 8 7 9 10 9 10 9 10 7 2 3 3 8 9
7 13 10 19 16 18 16 12 8 7 5 4 3 3 8 10 8 6 13 14 6 12 10 10 11 8 7 9 10 11 9 11 11 11 15 14 11 11 6 7 11 9 7
9 6 19 18 20 21 20 15 12 11 7 3 6 6 7 9 8 8 12 13 17 14 13 12 9 9 9 10 11 9 9 9 9 11 11 14 13 12 14 15 5 6 6
9 7 8 17 25 23 21 17 13 11 10 8 7 6 6 7 7 9 14 7 16 15 15 12 9 9 10 10 8 8 8 5 8 14 14 14 17 14 7 15 12 7 7
10 7 7 22 27 27 22 16 14 15 12 7 7 3 6 6 5 6 9 16 17 14 13 11 9 9 9 10 14 12 14 11 15 15 15 14 19 20 4 21 11 1 7
8 6 3 13 17 22 22 16 14 11 9 6 4 7 10 8 6 2 13 17 16 14 13 10 9 9 6 10 14 12 17 15 16 20 15 17 13 19 25 17 11 7 4
9 7 5 6 5 8 22 15 11 7 12 6 5 7 3 8 12 11 16 20 16 14 11 11 7 6 6 12 9 10 14 17 14 15 16 17 19 20 20 17 12 10 10
9 9 7 4 5 8 12 12 11 6 4 4 1 4 10 13 14 17 19 19 16 14 11 10 6 6 11 9 10 12 12 14 16 16 16 17 19 22 22 19 15 12 12
11 11 9 6 7 8 10 11 11 9 3 2 2 16 15 18 16 19 19 18 17 15 11 7 4 10 10 8 9 11 13 12 15 14 15 17 18 21 21 20 17 15 14
6 10 12 10 9 12 11 8 9 7 3 2 9 14 13 19 20 19 19 19 19 13 10 7 10 9 8 8 9 11 12 14 15 13 15 18 21 21 22 22 20 19 18
5 8 13 13 12 10 11 13 9 8 6 3 9 7 16 19 19 20 19 19 17 13 7 6 7 7 6 6 8 12 13 16 15 13 15 19 21 21 24 24 22 20 21
4 6 8 15 14 12 11 11 11 9 10 9 9 11 17 17 19 19 17 16 15 15 6 6 6 6 4 6 9 11 11 16 14 12 16 19 20 21 23 24 24 24 25
1 3 7 12 11 13 12 12 13 12 11 12 12 15 15 16 18 17 15 12 12 12 6 5 7 6 3 5 6 13 5 9 12 13 15 19 19 22 23 23 23 23 23
2 6 7 6 7 11 13 15 13 12 13 16 18 17 15 14 17 17 13 12 11 10 11 10 8 8 5 7 8 11 10 8 12 13 14 18 19 21 22 22 21 19 19
2 3 1 7 12 13 12 15 15 18 14 16 21 19 17 17 16 18 13 13 11 9 10 9 9 6 10 9 11 10 8 7 10 12 12 16 17 20 21 21 20 18 18
4 6 5 6 14 15 13 12 13 19 16 21 23 20 18 17 16 15 15 13 12 10 10 10 8 7 10 13 11 6 3 7 7 7 12 14 14 16 16 16 16 16 17
4 7 8 8 11 15 12 10 11 21 25 25 21 18 20 16 18 12 15 12 11 10 10 8 8 8 4 2 4 4 4 11 11 13 13 12 12 12 14 13 13 12 13
5 8 11 10 11 11 15 16 18 21 23 21 20 20 17 15 15 14 15 13 11 10 8 7 5 4 2 2 6 8 10 7 6 10 11 12 10 11 11 11 11 11 11
6 7 11 14 13 14 15 16 17 19 20 20 20 19 17 15 15 15 14 13 12 10 9 8 5 3 3 4 11 12 9 8 8 8 13 12 9 7 6 8 9 12 12
6 8 9 12 14 14 15 15 15 16 18 18 17 16 17 14 14 14 14 13 12 11 9 7 5 3 4 6 12 10 8 9 9 11 13 8 5 6 7 7 6 8 9
8 7 9 10 13 15 14 14 14 15 14 16 18 18 17 14 15 13 14 13 12 10 10 8 6 4 3 5 7 7 7 8 8 9 12 6 6 10 9 5 6 7 8
11 10 10 9 10 12 13 15 15 15 16 15 18 19 18 17 16 14 13 12 12 13 11 8 7 6 5 6 8 8 7 8 7 7 7 8 8 9 6 6 5 7 6
Wind_Direction
199 207 204 230 182 163 158 165 193 245 323 311 281 277 2 15 356 354 11 41 28 88 77 63 99 94 94 78 73 70 59 52 32 26 35 89 94 214 253 238 222 214 214
217 211 209 220 202 193 188 185 185 216 243 262 269 291 360 359 339 308 343 360 322 48 84 54 94 96 84 79 73 65 48 41 30 19 337 17 17 290 259 251 242 239 228
203 209 210 219 216 209 209 202 207 219 247 259 264 342 13 341 322 307 297 286 252 96 73 57 88 78 74 67 62 53 42 29 36 13 342 21 343 315 302 236 220 242 249
182 183 203 221 217 219 210 209 207 226 245 248 234 75 306 343 302 319 297 265 220 151 97 89 78 77 81 71 62 46 33 20 22 3 354 357 350 335 34 164 210 247 259
167 177 192 202 207 216 208 214 221 223 250 220 202 182 309 333 325 337 316 256 225 90 107 90 73 75 66 50 38 39 29 32 6 8 11 2 337 317 297 193 221 278 275
166 198 224 194 223 213 206 208 207 229 204 210 242 285 288 305 317 310 297 259 46 113 103 79 73 76 53 26 20 19 16 26 14 11 355 346 348 356 277 100 300 276 269
203 212 210 204 224 221 210 204 197 203 225 244 246 263 287 304 286 292 288 285 102 103 90 76 80 63 37 26 25 15 7 23 5 4 356 360 338 341 348 351 345 258 286
219 248 250 203 211 223 205 190 201 210 228 246 240 280 311 301 290 299 289 112 100 93 80 77 71 52 36 23 5 358 356 359 44 36 17 359 346 303 53 32 16 231 251
219 229 240 206 227 211 185 198 209 226 231 220 237 260 302 294 278 302 66 101 88 83 80 83 69 50 37 34 57 57 58 58 40 31 19 2 24 358 44 50 14 215 206
222 238 249 202 236 204 187 203 210 218 223 209 240 287 308 304 264 21 111 100 92 85 84 83 59 43 41 33 68 51 56 53 42 30 27 30 35 21 26 34 36 81 109
230 233 247 184 247 153 195 175 195 235 213 168 247 291 318 108 99 119 122 98 92 92 98 79 61 20 59 61 62 51 54 39 32 30 34 32 37 36 35 44 52 97 108
227 234 224 215 116 136 141 155 182 219 231 88 333 244 127 123 104 122 113 104 106 110 95 79 39 38 67 52 64 58 45 44 42 38 37 40 43 40 39 40 60 82 103
214 224 227 212 191 185 188 188 187 212 210 71 116 132 134 125 124 121 113 111 108 103 99 85 57 49 64 68 61 59 64 47 46 49 47 47 52 50 47 44 52 73 86
239 240 239 226 210 205 198 186 179 174 175 137 131 134 125 129 130 122 118 113 110 115 105 71 63 70 64 62 54 57 50 59 61 57 59 58 57 55 56 54 57 65 74
251 242 238 232 219 220 205 187 197 197 192 170 173 171 141 135 130 122 124 120 120 120 97 68 50 76 82 58 46 62 64 62 61 59 64 62 61 59 60 60 63 67 73
242 248 226 226 225 220 205 191 198 215 210 198 175 158 135 134 128 125 128 127 121 119 110 55 68 79 60 44 77 62 63 58 71 68 67 67 67 67 68 68 69 72 75
253 8 201 203 214 206 198 204 205 204 205 198 176 145 146 137 130 127 136 127 122 119 79 65 94 91 81 84 72 34 62 56 76 79 79 77 71 71 70 70 69 68 75
98 78 120 159 161 172 168 174 198 201 177 179 171 157 150 143 135 135 145 138 130 108 82 86 77 111 102 111 65 48 77 89 93 90 87 84 81 77 74 75 72 71 71
140 112 81 116 161 164 173 187 207 203 179 191 179 160 158 153 142 144 144 141 132 105 95 83 82 111 96 81 68 66 79 97 115 94 101 94 88 83 78 76 76 73 74
166 142 129 153 145 153 161 183 195 211 198 166 170 162 160 155 146 149 155 141 128 120 108 105 102 103 118 90 77 71 95 119 115 146 126 114 102 92 84 79 78 77 76
172 166 153 145 156 160 165 171 165 174 162 163 165 162 156 160 160 161 159 149 137 137 117 121 121 123 151 338 85 124 135 133 108 130 140 131 113 97 89 85 81 82 82
158 172 166 157 156 165 155 154 155 157 163 167 162 165 170 166 176 166 165 151 155 144 131 131 135 121 301 290 142 144 129 133 141 157 158 150 132 113 98 89 93 89 89
165 167 176 165 166 166 170 172 171 166 166 171 171 169 170 171 179 167 161 160 164 154 157 154 154 142 120 127 154 149 134 146 145 165 168 164 148 135 115 98 97 99 93
186 168 167 176 171 176 180 175 183 184 176 175 176 180 179 171 175 171 170 176 170 161 150 157 173 167 137 144 157 161 154 162 173 190 182 170 193 167 138 125 106 104 104
215 193 175 175 177 184 192 188 188 191 191 182 183 189 194 186 178 182 187 185 179 170 159 163 184 174 191 167 173 174 170 176 165 182 200 212 217 182 169 156 136 128 120
229 227 181 175 186 191 195 197 190 198 201 201 196 198 201 197 192 195 196 194 189 175 178 180 192 194 219 190 187 188 187 196 181 199 205 181 166 177 186 176 171 148 133